Location: Jackson Park
(37.2862°N, 79.9123°W)
Time: 12:09:53
(UTC+00:00)

Vanguard 3 - Pass Details

Date: 10 May 2026
Orbit: 507 x 3204 km, 33.3° (Epoch: 11 June)

Event Time Altitude Azimuth Distance (km) Brightness Sun altitude
Rises 03:03:57 0° 280° (W) 5,687 12.1 -26.9°
Reaches altitude 10° 03:09:22 10° 268° (W) 4,131 11.1 -27.5°
Maximum altitude 03:16:23 21° 225° (SW) 2,595 9.6 -28.3°
Enters shadow 03:17:13 21° 217° (SW) 2,524 9.4 -28.4°
Drops below altitude 10° 03:21:19 10° 178° (S) 2,763 - -28.8°
Sets 03:24:06 0° 161° (SSE) 3,392 - -29.1°
